Terminal Aerodrome Forecast
Issued by NWS

Home | Current Version | Previous Version | Text Only | Print | Product List | Glossary On
Versions: 1 2 3 4 5 6 7 8 9 10 11 12 13 14 15 16 17
000
FTUS45 KTFX 240500
TAFHLN
TAF
KHLN 240520Z 2406/2506 28006KT P6SM BKN080
     FM241900 28010G20KT P6SM VCSH BKN045 OVC080
     FM250100 27008KT P6SM SCT100=

USA.gov is the U.S. government's official web portal to all federal, state and local government web resources and services.